This is the latest recevied weather packets stored in our database for station/object N3EDS. If no packets are shown the sender has not sent any weather packets the latest 10 day(s).
| Time | Temp. | Humidity | Pressure | Rain* | Wind** | Luminosity | Snow |
|---|---|---|---|---|---|---|---|
| 1777677987 | 6.67° C | 96% | 1012.2 hPa | 0 mm | - | 5 W/m² | - |
| 1777677685 | 6.67° C | 95% | 1012.2 hPa | 0 mm | - | 5 W/m² | - |
| 1777677382 | 6.67° C | 95% | 1012 hPa | 0 mm | - | 12 W/m² | - |
| 1777677080 | 6.67° C | 94% | 1012.4 hPa | 1.27 mm | - | 7 W/m² | - |
| 1777676778 | 6.67° C | 93% | 1012.3 hPa | 1.27 mm | - | 9 W/m² | - |
| 1777676476 | 6.67° C | 90% | 1012.7 hPa | 0 mm | - | 12 W/m² | - |
| 1777676173 | 7.22° C | 90% | 1012.4 hPa | 0 mm | - | 8 W/m² | - |
| 1777675869 | 7.22° C | 89% | 1012.1 hPa | 0 mm | - | 15 W/m² | - |
| 1777675567 | 7.22° C | 89% | 1012.2 hPa | 0 mm | - | 23 W/m² | - |
| 1777675263 | 7.78° C | 88% | 1012.3 hPa | 0 mm | - | 27 W/m² | - |
| 1777674960 | 7.78° C | 85% | 1012.1 hPa | 0 mm | - | 31 W/m² | - |
| 1777674657 | 7.78° C | 83% | 1012.3 hPa | 0 mm | - | 43 W/m² | - |
| 1777674374 | 8.33° C | 82% | 1012.3 hPa | 0 mm | - | 19 W/m² | - |
| 1777674051 | 8.33° C | 80% | 1012 hPa | 0 mm | - | 53 W/m² | - |
| 1777673746 | 8.89° C | 77% | 1012 hPa | 0 mm | - | 60 W/m² | - |
| 1777673444 | 8.89° C | 76% | 1012 hPa | 0 mm | - | 82 W/m² | - |
| 1777673142 | 9.44° C | 73% | 1012 hPa | 0 mm | - | 94 W/m² | - |
| 1777672838 | 9.44° C | 68% | 1011.6 hPa | 0 mm | - | 81 W/m² | - |
| 1777672534 | 10° C | 64% | 1011.6 hPa | 0 mm | - | 93 W/m² | - |
| 1777672230 | 10° C | 64% | 1011.5 hPa | 0 mm | - | 96 W/m² | - |
| 1777671925 | 10° C | 63% | 1011.5 hPa | 0 mm | - | 43 W/m² | - |
| 1777671621 | 10° C | 62% | 1011.7 hPa | 0 mm | - | 52 W/m² | - |
| 1777671319 | 10.56° C | 60% | 1011.4 hPa | 0 mm | - | 96 W/m² | - |
| 1777671015 | 10.56° C | 64% | 1011.3 hPa | 0 mm | - | 122 W/m² | - |
| 1777670710 | 10.56° C | 60% | 1011.5 hPa | 0 mm | - | 136 W/m² | - |
* Rain latest hour (hover to see other rain measurements)
** Current wind speed in m/s (hover to see current wind gust speed)